Home > Weather > Guiyang > Past weeks

Flag for China Past Weather in Guiyang, Guizhou, China — Yesterday and Last 2 Weeks

Now
77 °F

Passing clouds.


Feels Like: 79 °F
Forecast: 67 / 79 °F
Wind: 8 mph from Southwest

Location: Guiyang Airport

Current Time: Jul 1, 2016 at 2:14:33 PM

Latest Report: Jul 1, 2016 at 1:00 PM


Visibility: N/A

Pressure: 29.80 "Hg (26.37 "Hg at 1067m altitude)

Humidity: 79%

Dew Point: 70 °F

Location of GuiyangLocation

Past Weather in Guiyang — Graph

°F

Guiyang Temperature Yesterday

Maximum temperature yesterday: 84 °F (at 4:00 PM)
Minimum temperature yesterday: 70 °F (at 3:00 AM)
Average temperature yesterday: 76 °F

High & Low Weather Summary for the Past Weeks

 TemperatureHumidityPressure
High88 °F (Jun 26, 3:00 PM)100% (Jun 17, 4:00 AM)30.01 "Hg (Jun 17, 4:00 AM)
Low59 °F (Jun 17, 4:00 AM)45% (Jun 16, 3:00 PM)29.74 "Hg (Jun 17, 5:00 PM)
Average75 °F80%29.86 "Hg
* Reported Jun 16 1:00 PM — Jul 1 1:00 PM, Guiyang, Weather by CustomWeather, © 2016

Note: Actual official high and low records may vary slightly from our data, if they occured in-between our weather recording intervals... More about our weather records

Advertising

Guiyang Weather History for the Previous 24 Hours

Scroll right to see more
 ConditionsComfort  
Time TempWeatherWind HumidityBarometerVisibility
1:00 PM
Fri, Jul 1
77 °FPassing clouds.8 mph79%29.80 "HgN/A
12:00 PM73 °FScattered clouds.6 mph83%29.83 "HgN/A
11:00 AM70 °FScattered clouds.6 mph94%29.83 "HgN/A
10:00 AM68 °FScattered clouds.3 mph100%29.83 "HgN/A
9:00 AM68 °FLight rain. More clouds than sun.6 mph100%29.83 "HgN/A
8:00 AM66 °FLight rain. Mostly cloudy.6 mph100%29.80 "HgN/A
7:00 AM66 °FSprinkles. Mostly cloudy.3 mph100%29.77 "Hg5 mi
6:00 AM66 °FSprinkles. Mostly cloudy.8 mph100%29.77 "Hg4 mi
5:00 AM68 °FThunderstorms. Mostly cloudy.1 mph100%29.74 "Hg5 mi
4:00 AM72 °FThunderstorms. Overcast.6 mph94%29.74 "HgN/A
3:00 AM72 °FLight rain. Mostly cloudy.3 mph100%29.77 "HgN/A
2:00 AM72 °FSprinkles. Mostly cloudy.3 mph94%29.77 "HgN/A
1:00 AM73 °FSprinkles. Mostly cloudy.8 mph89%29.80 "HgN/A
12:00 AM75 °FPartly cloudy.6 mph78%29.80 "HgN/A
11:00 PM
Thu, Jun 30
75 °FSprinkles. Mostly cloudy.6 mph83%29.80 "HgN/A
10:00 PM75 °FMostly cloudy.3 mph78%29.80 "HgN/A
9:00 PM75 °FPassing clouds.6 mph78%29.77 "HgN/A
8:00 PM77 °FPassing clouds.6 mph74%29.77 "HgN/A
7:00 PM77 °FPassing clouds.10 mph74%29.74 "HgN/A
6:00 PM79 °FScattered clouds.13 mph70%29.74 "HgN/A
5:00 PM82 °FPartly sunny.17 mph62%29.77 "HgN/A
4:00 PM84 °FPartly sunny.15 mph62%29.77 "HgN/A
3:00 PM81 °FPartly sunny.10 mph70%29.80 "HgN/A
2:00 PM79 °FPartly sunny.15 mph70%29.83 "HgN/A
Weather by CustomWeather, © 2016

See weather overviewHow to use our weather pages